Weather History for KIAB - March, 2013

Change the Weather History Date:

Wednesday, March 27, 2013

  Actual Average Record
Temperature  
Mean Temperature 48 °F -  
Max Temperature 61 °F 61 °F 76 °F (2012)
Min Temperature 35 °F 40 °F 26 °F (2009)
Degree Days  
Heating Degree Days 17    
Moisture  
Dew Point 26 °F    
Average Humidity 51    
Maximum Humidity 61    
Minimum Humidity 34    
Precipitation  
Precipitation 0.00 in - - ()
Sea Level Pressure  
Sea Level Pressure 30.15 in    
Wind  
Wind Speed 13 mph (SE)    
Max Wind Speed 21 mph    
Max Gust Speed 29 mph    
Visibility 10 miles    
Events      
Averages and records for this station are not official NWS values.
T = Trace of Precipitation, MM = Missing Value Source: NWS Daily Summary

Daily Weather History Graph

Daily Weather History Graph

Search for Another Location

Airport or City:

Trip Planner

Search our weather history database for the weather conditions in past years. The results will help you decide how hot, cold, wet, or windy it might be!

Date:

Astronomy

Mar. 27, 2013 Rise Set
Actual Time 7:21 AM CDT 7:47 PM CDT
Civil Twilight 6:55 AM CDT 8:13 PM CDT
Nautical Twilight 6:24 AM CDT 8:44 PM CDT
Astronomical Twilight 5:53 AM CDT 9:16 PM CDT
Moon 8:31 PM CDT (3/27) 7:14 AM CDT (3/27)
Length of Visible Light 13h 18m
Length of Day
12h 26m
Full, 100% of the Moon is Illuminated
Mar 27
Full
Apr 2
Last Quarter
Apr 10
New
Apr 18
First Quarter
Apr 25
Full

Hourly Weather History & Observations

Time (CDT) Temp. Windchill Dew Point Humidity Pressure Visibility Wind Dir Wind Speed Gust Speed Precip Events Conditions
12:58 AM 35.6 °F 28.0 °F 22.6 °F 59% 30.23 in 10.0 mi ESE 10.4 mph - N/A   Clear
1:01 AM 35.6 °F 27.5 °F 23.0 °F 60% 30.19 in 10.0 mi ESE 11.5 mph - N/A   Clear
1:12 AM 35.6 °F 27.1 °F 23.0 °F 60% 30.19 in 10.0 mi SE 12.7 mph - N/A   Clear
1:13 AM 35.6 °F 27.1 °F 23.0 °F 60% 30.19 in 10.0 mi SE 12.7 mph - N/A   Clear
1:28 AM 35.6 °F 28.0 °F 23.0 °F 60% 30.19 in 10.0 mi ESE 10.4 mph - N/A   Clear
1:58 AM 35.8 °F 28.3 °F 22.8 °F 59% 30.23 in 10.0 mi ESE 10.4 mph - 0.00 in   Clear
2:21 AM 37.4 °F 29.3 °F 23.0 °F 56% 30.18 in 10.0 mi SE 12.7 mph - N/A   Partly Cloudy
2:36 AM 37.4 °F 28.5 °F 23.0 °F 56% 30.17 in 10.0 mi SE 15.0 mph - N/A   Clear
2:38 AM 37.4 °F 28.9 °F 23.0 °F 56% 30.17 in 10.0 mi SE 13.8 mph - N/A   Clear
2:43 AM 37.4 °F 28.9 °F 23.0 °F 56% 30.17 in 10.0 mi ESE 13.8 mph - N/A   Clear
2:44 AM 37.4 °F 28.9 °F 23.0 °F 56% 30.17 in 10.0 mi ESE 13.8 mph - N/A   Clear
2:54 AM 37.4 °F 29.8 °F 23.0 °F 56% 30.17 in 10.0 mi ESE 11.5 mph - N/A   Clear
2:58 AM 36.5 °F 29.2 °F 23.2 °F 59% 30.21 in 10.0 mi SE 10.4 mph - 0.00 in   Clear
3:14 AM 37.4 °F 28.9 °F 23.0 °F 56% 30.17 in 10.0 mi SE 13.8 mph - N/A   Partly Cloudy
3:41 AM 37.4 °F 28.5 °F 23.0 °F 56% 30.16 in 10.0 mi SE 15.0 mph - N/A   Clear
3:48 AM 37.4 °F 29.8 °F 23.0 °F 56% 30.17 in 10.0 mi ESE 11.5 mph - N/A   Partly Cloudy
3:58 AM 37.4 °F 29.3 °F 23.0 °F 56% 30.20 in 10.0 mi SE 12.7 mph - 0.00 in   Partly Cloudy
4:03 AM 37.4 °F 30.3 °F 23.0 °F 56% 30.17 in 10.0 mi ESE 10.4 mph - N/A   Scattered Clouds
4:27 AM 37.4 °F 28.9 °F 23.0 °F 56% 30.16 in 10.0 mi SE 13.8 mph - N/A   Mostly Cloudy
4:58 AM 38.1 °F 30.7 °F 23.4 °F 55% 30.18 in 10.0 mi ESE 11.5 mph - 0.00 in   Overcast
5:02 AM 37.4 °F 30.3 °F 23.0 °F 56% 30.15 in 10.0 mi ESE 10.4 mph - N/A   Overcast
5:18 AM 39.2 °F 31.2 °F 23.0 °F 52% 30.14 in 10.0 mi ESE 13.8 mph - N/A   Overcast
5:22 AM 39.2 °F 31.2 °F 23.0 °F 52% 30.14 in 10.0 mi ESE 13.8 mph - N/A   Overcast
5:58 AM 38.1 °F 31.2 °F 24.8 °F 59% 30.17 in 10.0 mi East 10.4 mph - 0.00 in   Mostly Cloudy
6:19 AM 37.4 °F 30.3 °F 24.8 °F 60% 30.15 in 10.0 mi ESE 10.4 mph - N/A   Mostly Cloudy
6:58 AM 39.6 °F 31.7 °F 22.5 °F 50% 30.16 in 10.0 mi ESE 13.8 mph - 0.00 in   Partly Cloudy
7:21 AM 39.2 °F 31.2 °F 23.0 °F 52% 30.14 in 10.0 mi ESE 13.8 mph 21.9 mph N/A   Partly Cloudy
7:22 AM 39.2 °F 30.8 °F 23.0 °F 52% 30.14 in 10.0 mi ESE 15.0 mph 21.9 mph N/A   Partly Cloudy
7:23 AM 39.2 °F 30.8 °F 23.0 °F 52% 30.14 in 10.0 mi ESE 15.0 mph 21.9 mph N/A   Partly Cloudy
7:30 AM 39.2 °F 29.8 °F 23.0 °F 52% 30.14 in 10.0 mi SE 18.4 mph 23.0 mph N/A   Partly Cloudy
7:49 AM 41.0 °F 32.5 °F 23.0 °F 49% 30.14 in 10.0 mi SE 17.3 mph 26.5 mph N/A   Partly Cloudy
7:52 AM 41.0 °F 32.2 °F 23.0 °F 49% 30.14 in 10.0 mi SE 18.4 mph - N/A   Partly Cloudy
7:54 AM 41.0 °F 32.8 °F 23.0 °F 49% 30.14 in 10.0 mi ESE 16.1 mph - N/A   Partly Cloudy
7:55 AM 41.0 °F 33.1 °F 23.0 °F 49% 30.15 in 10.0 mi ESE 15.0 mph 24.2 mph N/A   Scattered Clouds
7:58 AM 40.1 °F 32.0 °F 22.8 °F 50% 30.17 in 10.0 mi ESE 15.0 mph 24.2 mph 0.00 in   Scattered Clouds
8:18 AM 39.2 °F 32.0 °F 23.0 °F 52% 30.15 in 10.0 mi ESE 11.5 mph - N/A   Overcast
8:40 AM 39.2 °F 31.2 °F 24.8 °F 56% 30.15 in 10.0 mi ESE 13.8 mph - N/A   Scattered Clouds
8:58 AM 40.3 °F 32.6 °F 24.1 °F 52% 30.18 in 10.0 mi SE 13.8 mph - 0.00 in   Partly Cloudy
9:07 AM 41.0 °F 32.8 °F 23.0 °F 49% 30.15 in 10.0 mi SE 16.1 mph 23.0 mph N/A   Partly Cloudy
9:11 AM 41.0 °F 32.5 °F 23.0 °F 49% 30.14 in 10.0 mi SE 17.3 mph 23.0 mph N/A   Partly Cloudy
9:16 AM 41.0 °F - 23.0 °F 49% - 10.0 mi North - - N/A   Clear
9:43 AM 42.8 °F 34.8 °F 24.8 °F 49% 30.13 in 10.0 mi SE 17.3 mph - N/A   Partly Cloudy
9:58 AM 43.0 °F 34.5 °F 24.4 °F 48% 30.17 in 10.0 mi SE 19.6 mph - 0.00 in   Clear
10:58 AM 46.4 °F 39.0 °F 25.3 °F 44% 30.16 in 10.0 mi SSE 19.6 mph 27.6 mph N/A   Mostly Cloudy
11:58 AM 51.3 °F - 26.1 °F 38% 30.14 in 10.0 mi South 20.7 mph 28.8 mph N/A   Partly Cloudy
12:58 PM 53.6 °F - 28.4 °F 38% 30.14 in 10.0 mi South 20.7 mph 25.3 mph N/A   Partly Cloudy
1:58 PM 55.9 °F - 30.0 °F 37% 30.12 in 10.0 mi South 19.6 mph - N/A   Partly Cloudy
2:58 PM 58.1 °F - 31.3 °F 36% 30.10 in 10.0 mi South 15.0 mph 20.7 mph N/A   Partly Cloudy
3:44 PM 60.8 °F - 32.0 °F 34% 30.08 in 10.0 mi WSW 15.0 mph - N/A   Clear
3:45 PM 60.8 °F - 32.0 °F 34% 30.08 in 10.0 mi WSW 15.0 mph - N/A   Clear
3:46 PM 59.0 °F - 32.0 °F 36% 30.08 in 10.0 mi SW 15.0 mph - N/A   Clear
3:58 PM 59.4 °F - 31.8 °F 35% 30.10 in 10.0 mi SSW 10.4 mph - N/A   Clear
4:58 PM 61.2 °F - 33.3 °F 35% 30.09 in 10.0 mi South 6.9 mph 17.3 mph N/A   Clear
5:58 PM 61.5 °F - 32.5 °F 34% 30.09 in 10.0 mi South 11.5 mph - N/A   Clear
6:58 PM 60.6 °F - 33.6 °F 36% 30.09 in 10.0 mi South 3.5 mph - N/A   Clear
7:58 PM 58.5 °F - 32.4 °F 37% 30.11 in 10.0 mi NE 2.3 mph - N/A   Clear
8:58 PM 51.1 °F - 36.1 °F 57% 30.12 in 10.0 mi NE 3.5 mph - N/A   Clear
9:58 PM 48.9 °F - 36.0 °F 61% 30.15 in 10.0 mi NE 8.1 mph - N/A   Clear
10:58 PM 48.4 °F - 32.2 °F 54% 30.15 in 10.0 mi East 5.8 mph - N/A   Clear
11:58 PM 46.0 °F 42.5 °F 32.0 °F 58% 30.16 in 10.0 mi ENE 6.9 mph - N/A   Clear